CST,Max TemperatureF,Mean TemperatureF,Min TemperatureF,Max Dew PointF,MeanDew PointF,Min DewpointF,Max Humidity, Mean Humidity, Min Humidity, Max Sea Level PressureIn, Mean Sea Level PressureIn, Min Sea Level PressureIn, Max VisibilityMiles, Mean VisibilityMiles, Min VisibilityMiles, Max Wind SpeedMPH, Mean Wind SpeedMPH, Max Gust SpeedMPH,PrecipitationIn, CloudCover, Events, WindDirDegrees
2014-1-1,10,6,3,3,0,-4,80,72,66,30.49,30.33,30.21,10,6,1,22,14,,0.00,7,Snow,7
2014-1-2,7,-2,-11,-5,-9,-18,80,69,55,30.56,30.51,30.46,10,10,10,10,6,,0.00,2,,341
2014-1-3,37,18,-2,27,12,-9,76,69,64,30.40,29.94,29.57,10,10,10,30,16,38,0.00,2,,174
2014-1-4,39,24,7,30,12,-2,79,68,62,30.33,30.01,29.62,10,10,10,33,17,41,0.00,3,,341
2014-1-5,9,0,-9,-3,-11,-21,66,57,45,30.63,30.49,30.32,10,9,2,33,22,40,0.00,3,Snow,336
2014-1-6,3,-5,-13,-11,-16,-22,71,58,49,30.59,30.50,30.36,10,10,8,22,14,29,0.00,3,,295
2014-1-7,23,7,-9,7,-1,-16,75,62,50,30.34,30.21,30.12,10,10,10,13,6,,0.00,5,,36
2014-1-8,21,16,12,8,6,3,73,62,53,30.47,30.41,30.30,10,10,10,14,7,,0.00,7,,55
2014-1-9,32,20,7,23,10,0,81,69,56,30.40,30.18,29.92,10,9,5,20,12,,0.00,4,,153
2014-1-10,37,31,24,32,28,21,93,87,76,29.92,29.66,29.55,10,4,1,16,10,,0.01,7,Snow,193
2014-1-11,46,34,21,29,22,14,84,69,46,29.82,29.75,29.64,10,10,10,24,8,30,0.00,0,,280
2014-1-12,50,42,35,33,28,24,70,57,43,29.66,29.56,29.46,10,10,10,21,12,,0.00,2,,244
2014-1-13,48,36,25,30,23,18,78,58,34,29.86,29.75,29.63,10,10,10,23,13,31,0.00,2,,266
2014-1-14,46,32,16,32,17,7,68,56,42,30.27,30.05,29.62,10,10,10,32,21,46,0.00,4,Rain,321
2014-1-15,45,19,1,28,11,-2,83,60,42,30.28,30.04,29.73,10,10,10,21,10,,0.00,4,,221
2014-1-16,46,30,14,27,13,1,74,57,40,30.11,29.92,29.69,10,8,2,47,27,63,0.00,6,Rain-Snow,320
2014-1-17,32,20,8,11,-1,-4,61,42,23,30.22,30.10,29.81,10,10,10,23,15,29,0.00,2,,300
2014-1-18,42,27,12,31,18,8,81,61,44,30.10,29.86,29.64,10,10,10,41,20,53,0.00,5,Rain,299
2014-1-19,68,42,15,26,20,10,84,49,14,30.02,29.80,29.62,10,10,10,21,12,29,0.00,0,,257
2014-1-20,48,26,3,30,16,-10,70,59,39,30.53,30.13,29.84,10,10,9,38,18,53,0.00,4,Rain,323
2014-1-21,28,11,-6,16,-8,-15,65,46,27,30.59,30.34,30.04,10,10,10,25,10,33,0.00,4,,208
2014-1-22,28,14,0,16,6,-13,77,61,41,30.69,30.27,30.05,10,9,2,31,16,38,0.00,6,Snow,338
2014-1-23,17,5,-7,-7,-11,-16,72,53,31,30.91,30.76,30.47,10,10,10,16,11,,0.00,0,,305
2014-1-24,51,30,10,34,15,-9,62,45,33,30.41,29.95,29.68,10,10,10,32,18,44,0.00,5,,251
2014-1-25,42,34,26,31,20,8,80,58,33,30.11,29.87,29.51,10,10,8,25,16,33,0.00,5,Snow,321
2014-1-26,53,30,3,32,14,-14,65,50,34,30.35,29.87,29.49,10,9,2,44,24,58,0.00,4,Snow,316
2014-1-27,12,2,-9,-10,-14,-20,65,50,32,30.58,30.51,30.37,10,10,10,21,13,26,0.00,0,,324
2014-1-28,19,3,-13,-6,-15,-23,71,48,26,30.55,30.43,30.28,10,10,10,17,4,22,0.00,0,,250
2014-1-29,46,20,-6,12,0,-17,68,43,20,30.28,29.95,29.57,10,10,10,28,12,37,0.00,0,,171
2014-1-30,41,28,16,25,11,3,70,49,26,30.14,29.74,29.39,10,10,10,34,19,43,0.00,5,,317
2014-1-31,25,18,12,16,3,-3,85,51,36,30.22,30.10,29.99,10,9,2,15,8,,0.00,7,Snow,83